SCD 2

Last updated on Tue Jul 08 2025 00:02:28 GMT+0000 (Coordinated Universal Time)

1 25504U 98060A 25188.03660858 .00000365 00000+0 51261-4 0 9991 2 25504 24.9962 40.3534 0017001 76.5650 88.9370 14.45308789410332
UTC large
Height (km)
Speed (km/s)
/
Latitude / Longitude
Inclination (degrees)
Orbital Period (minutes)
Azimuth
Elevation
Range (km)
Doppler Factor

Next 0 passes for location: London (51.5072 / 0.1276)

Sorry there are no passes over London.